Location: Sulphur Springs (historical)
(38.1246°N, 122.1900°W)
Time: 09:42:41
(UTC+00:00)

SL-16 R/B - Pass Details

Date: 29 October 2020
Orbit: 843 x 845 km, 71.0° (Epoch: 23 November)

Event Time Altitude Azimuth Distance (km) Brightness Sun altitude
Rises 14:00:04 0° 338° (NNW) 3,412 5.0 -7.0°
Reaches altitude 10° 14:02:32 10° 339° (NNW) 2,473 4.3 -6.5°
Maximum altitude 14:08:13 86° 68° (ENE) 853 2.3 -5.4°
Drops below altitude 10° 14:13:53 10° 157° (SSE) 2,458 5.2 -4.3°
Sets 14:16:19 0° 158° (SSE) 3,389 5.9 -3.8°
